Location: Kalberh�ni
(46.4610°N, 7.2453°E)
Time: 12:52:53
(UTC+00:00)

FALCON 9 DEB - Visible Passes

Search period start: 23 October 2021 00:00
Search period end: 02 November 2021 00:00
Orbit: 353 x 363 km, 53.0° (Epoch: 22 October)

Date Brightness Start Highest point End Pass type
(mag) Time Alt. Az. Time Alt. Az. Time Alt. Az.
24 Oct 5.5 18:19:33 10° S 18:19:44 11° S 18:19:44 11° S visible
25 Oct 5.7 18:47:09 10° SW 18:47:37 14° SW 18:47:37 14° SW visible
26 Oct 4.0 17:40:43 10° SSW 17:43:15 25° SE 17:43:34 25° SE visible
27 Oct 2.8 18:08:24 10° SW 18:11:05 69° SSW 18:11:05 69° SSW visible
28 Oct 3.8 17:01:43 10° SSW 17:04:22 30° SE 17:06:44 12° E visible
28 Oct 4.9 18:36:45 10° W 18:38:27 27° WNW 18:38:27 27° WNW visible
29 Oct 2.7 17:29:25 10° WSW 17:32:22 89° WNW 17:33:58 25° ENE visible
29 Oct 6.3 19:05:26 10° WNW 19:05:39 11° WNW 19:05:39 11° WNW visible
30 Oct 3.7 17:57:46 10° W 18:00:34 38° NNW 18:01:03 35° N visible
31 Oct 2.8 16:50:15 10° WSW 16:53:12 77° NNW 16:56:11 10° ENE visible
31 Oct 5.0 18:26:19 10° WNW 18:28:03 22° NW 18:28:03 22° NW visible
01 Nov 3.9 17:18:32 10° W 17:21:18 35° NNW 17:23:16 16° NE visible
01 Nov 6.2 18:54:45 10° NW 18:54:56 11° NW 18:54:56 11° NW visible
